Location: Windsor
(43.2292°N, 89.3015°W)
Time: 09:30:01
(UTC+00:00)

BEESAT - Pass Details

Date: 04 July 2022
Orbit: 700 x 706 km, 98.6° (Epoch: 13 August)

Event Time Altitude Azimuth Distance (km) Brightness Sun altitude
Rises 02:38:27 0° 11° (N) 3,105 ? -9.1°
Reaches altitude 10° 02:40:43 10° 9° (N) 2,183 ? -9.4°
Maximum altitude 02:45:28 70° 287° (WNW) 753 ? -10.0°
Drops below altitude 10° 02:50:12 10° 204° (SSW) 2,170 ? -10.6°
Sets 02:52:27 0° 202° (SSW) 3,085 ? -10.9°
